Weather History for Telfer, WE

Change the Weather History Date:

Thursday, February 7, 2013

  Actual Average Record
Temperature  
Mean Temperature 98 °F -  
Max Temperature 110 °F - - ()
Min Temperature 85 °F - - ()
Cooling Degree Days 33    
Growing Degree Days 48 (Base 50)    
Moisture  
Dew Point 51 °F    
Average Humidity 21    
Maximum Humidity 40    
Minimum Humidity 6    
Precipitation  
Precipitation 0.00 in - - ()
Sea Level Pressure  
Sea Level Pressure 29.72 in    
Wind  
Wind Speed 11 mph ()    
Max Wind Speed 26 mph    
Max Gust Speed 37 mph    
T = Trace of Precipitation, MM = Missing Value Source: Averaged Metar Reports

Daily Weather History Graph

Daily Weather History Graph

Search for Another Location

Airport:

Trip Planner

Search our weather history database for the weather conditions in past years. The results will help you decide how hot, cold, wet, or windy it might be!

Date:

Astronomy

Feb. 07, 2013 Rise Set
Actual Time 5:36 AM AWST 6:33 PM AWST
Civil Twilight 5:12 AM AWST 6:57 PM AWST
Nautical Twilight 4:45 AM AWST 7:24 PM AWST
Astronomical Twilight 4:17 AM AWST 7:52 PM AWST
Moon 2:11 AM AWST (2/7) 3:48 PM AWST (2/7)
Length of Visible Light 13h 44m
Length of Day
12h 57m
Waning Crescent, 13% of the Moon is Illuminated
Feb 7
Waning Crescent
Feb 10
New
Feb 18
First Quarter
Feb 26
Full
Mar 5
Last Quarter

Hourly Weather History & Observations

Time (AWST) Temp. Heat Index Dew Point Humidity Pressure Visibility Wind Dir Wind Speed Gust Speed Precip Events Conditions
12:00 AM 89 °F - 54 °F 21% 29.70 in - WNW 9.2 mph - -  
12:00 AM 87.8 °F 85.7 °F 53.6 °F 31% 29.74 in - WNW 9.2 mph - N/A   Unknown
1:00 AM 86.0 °F 84.2 °F 53.6 °F 33% 29.74 in - WNW 5.8 mph - N/A   Unknown
2:00 AM 89 °F - 52 °F 18% 29.66 in - West 11.5 mph - -  
2:00 AM 89.6 °F - 51.8 °F 27% 29.71 in - West 11.5 mph - N/A   Unknown
3:00 AM 87 °F - 58 °F 27% 29.66 in - WSW 11.5 mph - -  
3:00 AM 87.8 °F 86.5 °F 57.2 °F 35% 29.71 in - WSW 11.5 mph - N/A   Unknown
4:00 AM 87.8 °F 87.6 °F 60.8 °F 40% 29.74 in - WSW 11.5 mph - N/A   Unknown
5:00 AM 87 °F - 56 °F 24% 29.66 in - WSW 10.4 mph - -  
5:00 AM 87.8 °F 86.1 °F 55.4 °F 33% 29.71 in - WSW 10.4 mph - N/A   Unknown
6:00 AM 87 °F - 57 °F 26% 29.67 in - WSW 11.5 mph - -  
6:00 AM 86.0 °F 84.9 °F 57.2 °F 37% 29.74 in - WSW 11.5 mph - N/A   Unknown
7:00 AM 89.6 °F 87.7 °F 55.4 °F 31% 29.74 in - WSW 10.4 mph - N/A   Unknown
8:00 AM 94 °F - 51 °F 15% 29.71 in - SSE 9.2 mph - -  
8:00 AM 93.2 °F - 51.8 °F 24% 29.77 in - SSE 9.2 mph - N/A   Unknown
9:00 AM 97 °F - 47 °F 10% 29.72 in - SE 6.9 mph - -  
9:00 AM 96.8 °F - 46.4 °F 18% 29.77 in - SE 6.9 mph - N/A   Unknown
10:00 AM 102.2 °F - 48.2 °F 16% 29.77 in - East 8.1 mph - N/A   Unknown
11:00 AM 105 °F - 48 °F 8% 29.70 in - South 9.2 mph - -  
11:00 AM 104.0 °F - 48.2 °F 15% 29.77 in - South 9.2 mph - N/A   Unknown
12:00 PM 105 °F - 46 °F 7% 29.67 in - SE 8.1 mph - -  
12:00 PM 105.8 °F - 46.4 °F 14% 29.74 in - SE 8.1 mph - N/A   Unknown
1:00 PM 107.6 °F - 44.6 °F 12% 29.71 in - SE 9.2 mph 24.2 mph N/A   Unknown
2:00 PM 107 °F - 44 °F 6% 29.62 in - SE 12.7 mph - -  
2:00 PM 107.6 °F - 44.6 °F 12% 29.68 in - SE 12.7 mph - N/A   Unknown
3:00 PM 107 °F - 44 °F 6% 29.60 in - South 9.2 mph - -  
3:00 PM 107.6 °F - 44.6 °F 12% 29.65 in - South 9.2 mph - N/A   Unknown
4:00 PM 105.8 °F - 42.8 °F 12% 29.65 in - SSE 11.5 mph - N/A   Unknown
4:35 PM 102.2 °F - 48.2 °F 16% 29.65 in - NW 18.4 mph 29.9 mph N/A   Unknown
5:00 PM 100 °F - 50 °F 11% 29.59 in - NW 13.8 mph - -  
5:00 PM 100.4 °F - 50.0 °F 18% 29.65 in - NW 13.8 mph - N/A   Unknown
6:00 PM 100 °F - 47 °F 9% 29.61 in - North 5.8 mph - -  
6:00 PM 100.4 °F - 46.4 °F 16% 29.68 in - North 5.8 mph - N/A   Unknown
6:53 PM 98.6 °F - 48.2 °F 18% 29.74 in - North 3.5 mph - N/A   Unknown
7:00 PM 98.6 °F - 48.2 °F 18% 29.74 in - NNW 3.5 mph - N/A   Unknown
7:24 PM 95.0 °F 92.7 °F 53.6 °F 25% 29.77 in - NNW 20.7 mph - N/A   Unknown
7:25 PM 95.0 °F 92.7 °F 53.6 °F 25% 29.77 in - NNW 21.9 mph 33.4 mph N/A   Unknown
8:00 PM 90 °F - 55 °F 21% 29.74 in - WNW 26.5 mph - -  
8:00 PM 91.4 °F 89.4 °F 55.4 °F 29% 29.80 in - WNW 26.5 mph - N/A   Unknown
8:06 PM 89.6 °F 87.7 °F 55.4 °F 31% 29.80 in - WNW 25.3 mph 36.8 mph N/A   Unknown
9:00 PM 89 °F - 56 °F 23% 29.80 in - West 21.9 mph - -  
9:00 PM 89.6 °F 88.1 °F 57.2 °F 33% 29.86 in - West 21.9 mph - N/A   Unknown
10:00 PM 87.8 °F 86.1 °F 55.4 °F 33% 29.86 in - WNW 26.5 mph - N/A   Unknown
10:50 PM 86.0 °F 84.5 °F 55.4 °F 35% 29.86 in - West 21.9 mph 33.4 mph N/A   Unknown
11:00 PM 85 °F - 57 °F 28% 29.81 in - West 21.9 mph - -